Pincher Creek Airport, Alberta

8:16 AM MDT on August 16, 2017 (GMT -0600)
Pincher Creek

Weather History for CZPC - November, 2013

Change the Weather History Date:

Monday, November 18, 2013

  Actual Average Record
Temperature  
Mean Temperature 23 °F -  
Max Temperature 40 °F 32 °F 57 °F (2008)
Min Temperature 5 °F 17 °F -7 °F (2010)
Degree Days  
Heating Degree Days 42    
Moisture  
Dew Point 18 °F    
Average Humidity 80    
Maximum Humidity 100    
Minimum Humidity 53    
Precipitation  
Precipitation 0.00 in - - ()
Sea Level Pressure  
Sea Level Pressure 29.76 in    
Wind  
Wind Speed 14 mph ()    
Max Wind Speed 24 mph    
Max Gust Speed 34 mph    
Visibility 8.0 miles    
Events Rain , Snow    
Averages and records for this station are not official NWS values.
T = Trace of Precipitation, MM = Missing Value Source: Averaged Metar Reports

Daily Weather History Graph

Daily Weather History Graph

Search for Another Location

Airport or City:

Trip Planner

Search our weather history database for the weather conditions in past years. The results will help you decide how hot, cold, wet, or windy it might be!

Date:

Astronomy

Nov. 18, 2013 Rise Set
Actual Time 7:52 AM MST 4:49 PM MST
Civil Twilight 7:16 AM MST 5:25 PM MST
Nautical Twilight 6:37 AM MST 6:04 PM MST
Astronomical Twilight 5:59 AM MST 6:42 PM MST
Moon 5:53 PM MST (11/18) 8:46 AM MST (11/18)
Length of Visible Light 10h 08m
Length of Day
8h 57m
Full, 99% of the Moon is Illuminated
Nov 18
Full
Nov 25
Last Quarter
Dec 2
New
Dec 9
First Quarter
Dec 17
Full

Hourly Weather History & Observations

Time (MST) Temp. Windchill Dew Point Humidity Pressure Visibility Wind Dir Wind Speed Gust Speed Precip Events Conditions
12:00 AM 35.6 °F 25.5 °F 26.6 °F 70% 29.73 in 9.0 mi WSW 17.3 mph 29.9 mph N/A Rain Light Rain
12:24 AM 35.6 °F 24.8 °F 26.6 °F 70% 29.73 in 9.0 mi WSW 19.6 mph 29.9 mph N/A   Partly Cloudy
1:00 AM 35.6 °F 23.7 °F 26.6 °F 70% 29.68 in 9.0 mi WSW 24.2 mph 33.4 mph N/A   Partly Cloudy
1:31 AM 35.6 °F 25.5 °F 28.4 °F 75% 29.69 in 9.0 mi West 17.3 mph 34.5 mph N/A Rain Light Rain
1:47 AM 35.6 °F 24.8 °F 26.6 °F 70% 29.69 in 9.0 mi WSW 19.6 mph 27.6 mph N/A   Partly Cloudy
2:00 AM 37.4 °F 27.8 °F 26.6 °F 65% 29.68 in 9.0 mi WSW 17.3 mph 27.6 mph N/A   Clear
3:00 AM 37.4 °F 26.6 °F 26.6 °F 65% 29.70 in 9.0 mi West 21.9 mph 28.8 mph N/A   Mostly Cloudy
4:00 AM 37.4 °F 29.3 °F 26.6 °F 65% 29.72 in 9.0 mi West 12.7 mph 25.3 mph N/A   Partly Cloudy
5:00 AM 38 °F - 27 °F 53% 29.74 in 10 mi West 19.6 mph - -  
5:00 AM 37.4 °F 27.5 °F 26.6 °F 65% 29.74 in 9.0 mi West 18.4 mph 26.5 mph N/A   Clear
6:00 AM 37.4 °F 27.2 °F 26.6 °F 65% 29.74 in 9.0 mi West 19.6 mph 29.9 mph N/A   Partly Cloudy
7:00 AM 37.4 °F 28.2 °F 26.6 °F 65% 29.76 in 9.0 mi West 16.1 mph 21.9 mph N/A   Clear
8:00 AM 37.4 °F 30.3 °F 26.6 °F 65% 29.78 in 9.0 mi West 10.4 mph 18.4 mph N/A   Mostly Cloudy
9:00 AM 39.2 °F 33.6 °F 28.4 °F 65% 29.80 in 9.0 mi WSW 8.1 mph 21.9 mph N/A   Overcast
10:00 AM 39.2 °F 32.0 °F 30.2 °F 70% 29.79 in 9.0 mi SW 11.5 mph 21.9 mph N/A   Clear
11:00 AM 23 °F - 19 °F 80% 29.85 in 10 mi ESE 11.5 mph - -  
11:00 AM 23.0 °F 12.4 °F 19.4 °F 86% 29.84 in 9.0 mi ESE 10.4 mph - N/A   Mostly Cloudy
12:00 PM 19.4 °F 5.5 °F 14.0 °F 80% 29.85 in 9.0 mi ESE 15.0 mph 20.7 mph N/A   Mostly Cloudy
1:00 PM 21.2 °F 11.7 °F 15.8 °F 80% 29.82 in 9.0 mi ESE 8.1 mph - N/A   Partly Cloudy
2:00 PM 21.2 °F 11.7 °F 15.8 °F 80% 29.79 in 9.0 mi ESE 8.1 mph - N/A   Clear
3:00 PM 23.0 °F 15.8 °F 17.6 °F 80% 29.77 in 9.0 mi ESE 5.8 mph - N/A   Clear
4:00 PM 19.4 °F 7.9 °F 15.8 °F 86% 29.78 in 9.0 mi ESE 10.4 mph - N/A   Clear
5:00 PM 14 °F - 12 °F 86% 29.79 in 10 mi ESE 9.2 mph - -  
5:00 PM 14.0 °F 2.0 °F 12.2 °F 93% 29.78 in 9.0 mi ESE 9.2 mph - N/A   Clear
6:00 PM 12.2 °F -3.1 °F 10.4 °F 92% 29.79 in 9.0 mi ESE 13.8 mph - N/A   Clear
7:00 PM 10.4 °F -3.3 °F 8.6 °F 92% 29.78 in 9.0 mi ESE 10.4 mph 17.3 mph N/A   Overcast
8:00 PM 10.4 °F -6.6 °F 8.6 °F 92% 29.76 in 9.0 mi ESE 16.1 mph - N/A   Clear
8:53 PM 8.6 °F -7.7 °F 8.6 °F 100% 29.78 in 6.0 mi ESE 13.8 mph - N/A Snow Light Snow
9:00 PM 8.6 °F -7.0 °F 6.8 °F 92% 29.77 in 6.0 mi ESE 12.7 mph - N/A Snow Light Snow
9:28 PM 8.6 °F -7.0 °F 6.8 °F 92% 29.76 in 6.0 mi ESE 12.7 mph - N/A Snow Light Snow
9:29 PM 8.6 °F -7.0 °F 6.8 °F 92% 29.77 in 5.0 mi ESE 12.7 mph - N/A Snow Light Snow
9:38 PM 6.8 °F -10.0 °F 6.8 °F 100% 29.76 in 4.0 mi ESE 13.8 mph - N/A Snow Light Snow
9:48 PM 6.8 °F -10.7 °F 6.8 °F 100% 29.76 in 4.0 mi ESE 15.0 mph - N/A Snow Light Snow
10:00 PM 6.8 °F -10.0 °F 6.8 °F 100% 29.76 in 4.0 mi ESE 13.8 mph 19.6 mph N/A Snow Light Snow
11:00 PM 6 °F - 4 °F 89% 29.80 in 3 mi ESE 17.3 mph - - Snow Light Snow
11:00 PM 5.0 °F -14.2 °F 5.0 °F 100% 29.80 in 3.0 mi ESE 17.3 mph - N/A Snow Light Snow